This is the latest recevied weather packets stored in our database for station/object IV3ONZ. If no packets are shown the sender has not sent any weather packets the latest 10 day(s).
| Time | Temp. | Humidity | Pressure | Rain* | Wind** | Luminosity | Snow |
|---|---|---|---|---|---|---|---|
| 1778155803 | 20.56° C | 74% | 1015.8 hPa | 0 mm | - | 997 W/m² | - |
| 1778150103 | 19.44° C | 72% | 1016.3 hPa | 0 mm | - | 222 W/m² | - |
| 1778149804 | 19.44° C | 72% | 1016.4 hPa | 0 mm | - | 988 W/m² | - |
| 1778148903 | 19.44° C | 69% | 1016.3 hPa | 0 mm | - | 953 W/m² | - |
| 1778147703 | 18.89° C | 71% | 1016.4 hPa | 0 mm | - | 918 W/m² | - |
| 1778145603 | 18.89° C | 70% | 1016.2 hPa | 0 mm | - | 888 W/m² | - |
| 1778143504 | 18.33° C | 73% | 1016.5 hPa | 0 mm | - | 923 W/m² | - |
| 1778143336 | 18.89° C | 73% | 1016.3 hPa | 0 mm | - | 595 W/m² | - |
| 1778142604 | 18.33° C | 74% | 1016.1 hPa | 0 mm | - | 940 W/m² | - |
| 1778140504 | 18.89° C | 78% | 1015.8 hPa | 0 mm | - | 471 W/m² | - |
| 1778139904 | 18.89° C | 78% | 1015.9 hPa | 0 mm | - | 504 W/m² | - |
| 1778138704 | 18.89° C | 77% | 1015.5 hPa | 0 mm | - | 524 W/m² | - |
| 1778137637 | 17.78° C | 82% | 1015.7 hPa | 0 mm | - | 615 W/m² | - |
| 1778135704 | 17.78° C | 78% | 1015.3 hPa | 0 mm | - | 346 W/m² | - |
| 1778134637 | 17.78° C | 82% | 1015 hPa | 0 mm | - | 187 W/m² | - |
| 1778133605 | 17.22° C | 84% | 1015.3 hPa | 0 mm | - | 298 W/m² | - |
| 1778130304 | 16.11° C | 88% | 1014.6 hPa | 0 mm | - | 61 W/m² | - |
| 1778129104 | 16.11° C | 89% | 1014.5 hPa | 0 mm | - | 36 W/m² | - |
| 1778128204 | 15.56° C | 90% | 1014.5 hPa | 0 mm | - | 15 W/m² | - |
| 1778127304 | 15.56° C | 90% | 1014.3 hPa | 0 mm | - | 12 W/m² | - |
| 1778125933 | 15.56° C | 91% | 1014.4 hPa | 0 mm | - | 4 W/m² | - |
| 1778124604 | 15.56° C | 91% | 1014.3 hPa | 0 mm | - | 0 W/m² | - |
| 1778123235 | 15.56° C | 91% | 1014 hPa | 0 mm | - | 0 W/m² | - |
| 1778121904 | 15.56° C | 90% | 1014 hPa | 0 mm | - | 0 W/m² | - |
| 1778120404 | 16.11° C | 88% | 1014 hPa | 0 mm | - | 0 W/m² | - |
* Rain latest hour (hover to see other rain measurements)
** Current wind speed in m/s (hover to see current wind gust speed)